User: anonymous   Login
Location: Unspecified
(0.0000°N, 0.0000°E)
Time: 19:08:23
(UTC+00:00)
Language:

STARLINK-30288 - Orbit

View from above orbital plane
View from above orbital plane
View from above satellite
View from above satellite

Ground track
Ground track

The orbit is defined by the following mean orbital elements,

1 57698U          26145.42399850 +.00000000 +00000-0 +81004-4 0 00003
2 57698  43.0071  44.9223 0001387 267.0809  92.9884 15.27577844    07
Epoch (UTC): 25 May 2026 10:10:33
Eccentricity: 0.0001387
inclination: 43.0071°
perigee height: 482 km
apogee height: 484 km
right ascension of ascending node: 44.9223°
argument of perigee: 267.0809°
revolutions per day: 15.27577844
mean anomaly at epoch: 92.9884°

The dashed part of the orbit path shows where the satellite is in the earth's shadow,  

DLR